Weather History for LHBP - May, 2013

Change the Weather History Date:

Wednesday, May 15, 2013

  Actual Average Record
Temperature  
Mean Temperature 58 °F -  
Max Temperature 71 °F 72 °F 84 °F (1997)
Min Temperature 46 °F 50 °F 37 °F (2004)
Degree Days  
Heating Degree Days 6    
Growing Degree Days 8 (Base 50)    
Moisture  
Dew Point 50 °F    
Average Humidity 73    
Maximum Humidity 100    
Minimum Humidity 43    
Precipitation  
Precipitation 0.00 in - - ()
Sea Level Pressure  
Sea Level Pressure 29.85 in    
Wind  
Wind Speed 5 mph ()    
Max Wind Speed 10 mph    
Max Gust Speed -    
Visibility 6.2 miles    
Events      
Averages and records for this station are not official NWS values.
T = Trace of Precipitation, MM = Missing Value Source: Averaged Metar Reports

Daily Weather History Graph

Daily Weather History Graph

Search for Another Location

Airport or City:

Trip Planner

Search our weather history database for the weather conditions in past years. The results will help you decide how hot, cold, wet, or windy it might be!

Date:

Astronomy

May. 15, 2013 Rise Set
Actual Time 5:06 AM CEST 8:13 PM CEST
Civil Twilight 4:29 AM CEST 8:49 PM CEST
Nautical Twilight 3:42 AM CEST 9:37 PM CEST
Astronomical Twilight 2:44 AM CEST 10:36 PM CEST
Moon 9:27 AM CEST (5/15) No Moon Set
Length of Visible Light 16h 20m
Length of Day
15h 07m
Waxing Crescent, 24% of the Moon is Illuminated
May 15
Waxing Crescent
May 18
First Quarter
May 25
Full
May 31
Last Quarter
Jun 8
New

Hourly Weather History & Observations

Time (CEST) Temp. Windchill Dew Point Humidity Pressure Visibility Wind Dir Wind Speed Gust Speed Precip Events Conditions
12:00 AM 55.4 °F - 51.8 °F 88% 29.92 in - Variable 1.2 mph - N/A   Clear
12:30 AM 51.8 °F - 48.2 °F 88% 29.92 in - Variable 2.3 mph - N/A   Clear
1:00 AM 48.2 °F - 48.2 °F 100% 29.89 in - Variable 2.3 mph - N/A   Clear
1:30 AM 48.2 °F - 48.2 °F 100% 29.89 in - Variable 3.5 mph - N/A   Clear
2:00 AM 46.4 °F 45.2 °F 46.4 °F 100% 29.89 in - Variable 3.5 mph - N/A   Clear
2:30 AM 50.0 °F - 50.0 °F 100% 29.89 in - Variable 3.5 mph - N/A   Clear
3:00 AM 50.0 °F - 50.0 °F 100% 29.89 in - Variable 3.5 mph - N/A   Clear
3:30 AM 50.0 °F - 50.0 °F 100% 29.89 in - West 5.8 mph - N/A   Clear
4:00 AM 50.0 °F - 50.0 °F 100% 29.89 in - West 4.6 mph - N/A   Clear
4:30 AM 51.8 °F - 50.0 °F 94% 29.86 in - NW 4.6 mph - N/A   Clear
5:00 AM 51.8 °F - 50.0 °F 94% 29.86 in - WNW 4.6 mph - N/A   Clear
5:30 AM 50.0 °F - 50.0 °F 100% 29.86 in - West 4.6 mph - N/A   Clear
6:00 AM 50.0 °F - 50.0 °F 100% 29.86 in - Variable 3.5 mph - N/A   Clear
6:30 AM 51.8 °F - 51.8 °F 100% 29.86 in - Variable 2.3 mph - N/A   Clear
7:00 AM 53.6 °F - 51.8 °F 94% 29.89 in - Variable 2.3 mph - N/A   Clear
7:30 AM 55.4 °F - 51.8 °F 88% 29.89 in - Variable 2.3 mph - N/A   Clear
8:00 AM 60.8 °F - 53.6 °F 77% 29.89 in - East 4.6 mph - N/A   Clear
8:30 AM 60.8 °F - 51.8 °F 72% 29.89 in - ESE 9.2 mph - N/A   Clear
9:00 AM 60.8 °F - 50.0 °F 68% 29.89 in 6.2 mi East 8.1 mph - N/A   Partly Cloudy
9:30 AM 62.6 °F - 51.8 °F 68% 29.89 in 6.2 mi East 5.8 mph - N/A   Partly Cloudy
10:00 AM 62.6 °F - 51.8 °F 68% 29.86 in 6.2 mi East 8.1 mph - N/A   Scattered Clouds
10:30 AM 64.4 °F - 51.8 °F 64% 29.89 in 6.2 mi East 6.9 mph - N/A   Scattered Clouds
11:00 AM 64.4 °F - 50.0 °F 59% 29.86 in 6.2 mi ESE 6.9 mph - N/A   Scattered Clouds
11:30 AM 66.2 °F - 51.8 °F 60% 29.86 in 6.2 mi East 6.9 mph - N/A   Scattered Clouds
12:00 PM 66.2 °F - 51.8 °F 60% 29.86 in 6.2 mi ESE 6.9 mph - N/A   Scattered Clouds
12:30 PM 66.2 °F - 50.0 °F 56% 29.86 in 6.2 mi ESE 8.1 mph - N/A   Scattered Clouds
1:00 PM 66.2 °F - 48.2 °F 52% 29.86 in 6.2 mi ESE 8.1 mph - N/A   Scattered Clouds
1:30 PM 66.2 °F - 50.0 °F 56% 29.83 in 6.2 mi East 6.9 mph - N/A   Scattered Clouds
2:00 PM 69.8 °F - 53.6 °F 56% 29.83 in 6.2 mi ESE 8.1 mph - N/A   Scattered Clouds
2:30 PM 69.8 °F - 50.0 °F 49% 29.83 in 6.2 mi ESE 9.2 mph - N/A   Scattered Clouds
3:00 PM 68.0 °F - 50.0 °F 52% 29.83 in 6.2 mi SE 9.2 mph - N/A   Scattered Clouds
3:30 PM 71.6 °F - 51.8 °F 50% 29.83 in 6.2 mi ESE 8.1 mph - N/A   Scattered Clouds
4:00 PM 69.8 °F - 50.0 °F 49% 29.80 in 6.2 mi SSE 9.2 mph - N/A   Partly Cloudy
4:30 PM 71.6 °F - 48.2 °F 43% 29.80 in 6.2 mi SE 9.2 mph - N/A   Partly Cloudy
5:00 PM 69.8 °F - 50.0 °F 49% 29.80 in - SE 10.4 mph - N/A   Clear
5:30 PM 71.6 °F - 48.2 °F 43% 29.80 in - SE 9.2 mph - N/A   Clear
6:00 PM 69.8 °F - 50.0 °F 49% 29.80 in - SE 10.4 mph - N/A   Clear
6:30 PM 68.0 °F - 48.2 °F 49% 29.80 in - SE 10.4 mph - N/A   Clear
7:00 PM 68.0 °F - 50.0 °F 52% 29.80 in - SE 8.1 mph - N/A   Clear
7:30 PM 66.2 °F - 50.0 °F 56% 29.80 in - SSE 6.9 mph - N/A   Clear
8:00 PM 62.6 °F - 50.0 °F 63% 29.80 in - SE 8.1 mph - N/A   Clear
8:30 PM 60.8 °F - 50.0 °F 68% 29.80 in - SSE 6.9 mph - N/A   Clear
9:00 PM 57.2 °F - 50.0 °F 77% 29.80 in - SE 6.9 mph - N/A   Clear
9:30 PM 57.2 °F - 50.0 °F 77% 29.80 in - ESE 4.6 mph - N/A   Clear
10:00 PM 55.4 °F - 48.2 °F 77% 29.80 in - East 5.8 mph - N/A   Clear
10:30 PM 55.4 °F - 50.0 °F 82% 29.80 in - East 6.9 mph - N/A   Clear
11:00 PM 53.6 °F - 48.2 °F 82% 29.80 in - East 6.9 mph - N/A   Clear
11:30 PM 53.6 °F - 50.0 °F 88% 29.80 in - East 8.1 mph - N/A   Clear